RH
8 8 8 8 8 8 7 7 7 7 6 6 6 6 6 6 5 5 5 4 4 4 4 4 4 3 3 3 3 3 2 2 2 2 2 2 2 2 2 2 2 2 2 2 2 2 2 2 2 2 2 2 2 2 2 2 2 2 2 2 2 2 2 2 2 2 2 2 2 3 3 3 4 4 4 4 4 5 5 5 6 6 7 8 8 8 9 9 8 8 7 8 9 13 20 32 43 52 57 59 62 65 69
8 8 8 8 8 7 7 7 7 6 6 6 6 6 5 5 5 5 4 4 4 4 4 3 3 3 3 3 2 2 2 2 2 2 2 2 2 2 2 2 2 2 2 2 2 2 2 2 2 2 2 1 1 1 1 1 1 1 1 1 1 1 1 2 2 2 2 2 2 2 2 3 3 3 4 4 4 4 4 5 5 6 6 6 7 8 8 9 9 8 8 7 8 9 12 21 32 44 53 57 60 62 66
8 8 8 7 7 7 7 7 6 6 6 6 6 5 5 5 4 4 4 4 4 3 3 3 3 3 3 2 2 2 2 2 2 2 2 2 2 2 2 2 2 2 2 2 2 2 2 2 1 1 1 1 1 1 1 1 1 1 1 1 1 1 1 1 1 2 2 2 2 2 2 2 2 3 3 3 4 4 4 4 4 5 5 6 6 7 8 8 9 9 8 8 8 8 8 13 22 32 45 53 58 60 63
8 8 7 7 7 7 6 6 6 6 6 6 5 5 5 4 4 4 4 4 3 3 3 3 3 2 2 2 2 2 2 2 2 2 2 2 2 2 2 2 2 2 2 2 2 1 1 1 1 1 1 1 1 1 1 1 1 1 1 1 1 1 1 1 1 1 1 2 2 2 2 2 2 2 2 3 3 3 4 4 4 4 5 5 6 6 6 8 8 8 9 8 8 8 7 9 14 22 33 45 53 58 60
8 7 7 7 7 6 6 6 6 6 6 5 5 5 4 4 4 4 4 4 3 3 3 3 2 2 2 2 2 2 2 2 2 2 2 2 2 2 2 2 2 2 2 2 1 1 1 1 1 1 1 1 1 1 1 1 1 1 1 1 1 1 1 1 1 1 1 1 1 2 2 2 2 2 2 2 3 3 3 3 4 4 4 4 5 5 6 6 7 8 8 9 8 8 7 7 9 14 22 34 46 54 59
7 7 7 7 6 6 6 6 6 6 5 5 5 5 4 4 4 4 4 3 3 3 3 3 2 2 2 2 2 2 2 2 2 2 2 2 2 2 2 2 2 2 2 1 1 1 1 1 1 1 1 1 1 1 1 1 1 1 1 1 1 1 1 1 1 1 1 1 1 1 1 2 2 2 2 2 2 2 3 3 3 4 4 4 4 5 5 6 6 7 8 8 9 9 8 7 8 10 14 24 36 47 56
7 7 7 6 6 6 6 6 6 6 5 5 5 4 4 4 4 4 3 3 3 3 3 2 2 2 2 2 2 2 2 2 2 2 2 2 2 2 2 2 2 2 2 1 1 1 1 1 1 1 1 1 1 1 1 1 1 1 1 1 1 1 1 1 1 1 1 1 1 1 1 1 1 2 2 2 2 2 2 2 3 3 3 4 4 4 4 5 5 6 7 8 8 9 9 8 8 8 9 15 25 37 49
7 7 7 6 6 6 6 6 6 5 5 5 5 4 4 4 4 4 3 3 3 3 2 2 2 2 2 2 2 2 2 2 2 2 2 2 2 2 2 2 2 1 1 1 1 1 1 1 1 1 1 1 1 1 1 1 1 1 1 1 1 1 1 1 1 1 1 1 1 1 1 1 1 1 2 2 2 2 2 2 2 3 3 3 4 4 4 4 5 5 6 7 8 8 9 9 8 8 7 10 17 26 40
7 7 7 6 6 6 6 6 6 5 5 5 4 4 4 4 4 3 3 3 3 2 2 2 2 2 2 2 2 2 2 2 2 2 2 2 2 2 2 2 2 1 1 1 1 1 1 1 1 1 1 1 1 1 1 1 1 1 1 1 1 1 1 1 1 1 1 1 1 1 1 1 1 1 1 2 2 2 2 2 2 2 2 3 3 4 4 4 4 5 5 6 6 8 8 9 8 8 7 8 11 18 28
7 7 7 6 6 6 6 6 6 5 5 5 4 4 4 4 4 3 3 3 3 2 2 2 2 2 2 2 2 2 2 2 2 2 2 2 2 2 2 2 2 2 2 1 1 1 1 1 1 1 1 1 1 1 1 1 1 1 1 1 1 1 1 1 1 1 1 1 1 1 1 1 1 1 1 1 1 2 2 2 2 2 2 2 3 3 3 4 4 4 4 5 6 6 8 8 9 9 8 8 8 12 19
7 7 6 6 6 6 6 6 5 5 5 5 4 4 4 4 3 3 3 3 2 2 2 2 2 2 2 2 2 2 2 2 2 2 2 2 2 2 2 2 2 2 2 2 2 2 2 2 2 2 1 1 1 1 1 1 1 1 1 1 1 1 1 1 1 1 1 1 1 1 1 1 1 1 1 1 1 2 2 2 2 2 2 2 2 3 3 3 4 4 4 4 5 6 6 7 8 9 9 8 8 9 12
7 7 6 6 6 6 6 6 5 5 5 4 4 4 4 4 3 3 3 2 2 2 2 2 2 2 2 2 2 2 2 2 2 2 2 2 2 2 2 2 2 2 2 2 2 2 2 2 2 2 2 2 2 2 2 1 1 1 1 2 1 1 1 1 1 1 1 1 1 1 1 1 1 1 1 1 1 1 2 2 2 2 2 2 2 2 3 3 3 4 4 4 4 5 5 6 7 8 9 8 8 8 9
7 7 6 6 6 6 6 5 5 5 5 4 4 4 4 3 3 3 3 2 2 2 2 2 2 2 2 2 2 2 2 2 2 2 2 2 2 2 2 2 2 2 2 2 2 2 2 2 2 2 2 2 2 2 2 2 2 2 2 2 2 2 2 1 1 1 1 1 1 1 1 1 1 1 1 1 1 1 1 1 2 2 2 2 2 2 2 3 3 3 4 4 4 4 5 5 6 7 8 9 8 8 8
7 6 6 6 6 6 5 5 5 5 4 4 4 4 3 3 3 3 2 2 2 2 2 2 2 2 2 2 2 2 2 2 2 2 2 2 2 2 2 2 2 2 2 2 2 2 2 2 2 2 2 2 2 2 2 2 2 2 2 2 2 2 2 2 2 2 2 1 1 1 1 1 1 1 1 1 1 1 1 1 1 2 2 2 2 2 2 2 3 3 3 4 4 4 4 5 5 6 7 8 8 8 8
7 6 6 6 6 6 5 5 5 5 4 4 4 4 3 3 3 2 2 2 2 2 2 2 2 2 2 2 2 2 2 2 2 2 2 2 2 2 2 2 2 2 2 2 2 2 2 2 2 2 2 2 2 2 2 2 2 2 2 2 2 2 2 2 2 2 2 2 2 2 1 1 1 1 1 1 1 1 1 1 1 2 2 2 2 2 2 2 2 3 3 3 3 4 4 4 4 5 6 7 8 8 8
6 6 6 6 6 5 5 5 5 4 4 4 4 3 3 3 3 2 2 2 2 2 2 2 2 2 2 2 2 2 2 2 2 2 2 2 2 2 2 2 2 2 2 2 2 2 2 2 2 2 2 2 2 2 2 2 2 2 2 2 2 2 2 2 2 2 2 2 2 2 2 2 1 1 1 1 1 1 1 1 1 1 1 2 2 2 2 2 2 2 3 3 3 3 4 4 4 4 5 6 8 8 9
6 6 6 6 6 5 5 5 4 4 4 4 4 3 3 3 2 2 2 2 2 2 2 2 2 2 2 2 2 2 2 2 2 2 2 2 2 2 2 2 2 2 2 2 2 2 2 2 2 2 2 2 2 2 2 2 2 2 2 2 2 2 2 2 2 2 2 2 2 2 2 2 2 2 1 1 1 1 1 1 1 1 1 1 2 2 2 2 2 2 2 3 3 3 3 4 4 4 4 5 6 8 8
6 6 6 6 6 5 5 5 4 4 4 4 3 3 3 2 2 2 2 2 2 2 2 2 2 2 2 2 2 2 2 2 2 2 2 2 2 2 2 2 2 2 2 2 2 2 2 2 2 2 2 2 2 2 2 2 2 2 2 2 2 2 2 2 2 2 2 2 2 2 2 2 2 2 2 1 1 1 1 1 1 1 1 1 1 2 2 2 2 2 2 2 3 3 3 3 4 4 4 4 5 6 8
6 6 6 6 6 5 5 5 4 4 4 4 3 3 3 2 2 2 2 2 2 2 2 2 2 2 2 2 2 2 2 2 2 2 2 2 2 2 2 2 2 2 2 2 2 3 3 3 3 3 3 3 3 3 3 3 3 3 3 3 3 3 3 3 3 3 2 2 2 2 2 2 2 2 2 2 2 1 1 1 1 1 1 1 1 1 2 2 2 2 2 2 2 3 3 3 3 3 4 4 4 5 6
6 6 6 6 6 5 5 5 4 4 4 4 3 3 3 2 2 2 2 2 2 2 2 2 2 2 2 2 2 2 2 2 2 2 2 2 2 2 2 2 2 3 3 3 3 3 3 3 3 3 3 3 3 3 3 3 3 3 3 3 3 3 3 3 3 3 3 3 3 2 2 2 2 2 2 2 2 2 2 1 1 1 1 1 1 1 1 2 2 2 2 2 2 2 3 3 3 3 3 4 4 4 6
6 6 6 6 6 5 5 5 4 4 4 4 3 3 3 2 2 2 2 2 2 2 2 2 2 2 2 2 2 2 2 2 2 2 2 2 2 2 3 3 3 3 3 3 3 3 4 4 4 4 4 4 4 3 3 3 3 3 3 3 3 3 3 3 3 3 3 3 3 3 3 2 2 2 2 2 2 2 2 2 1 1 1 1 1 1 1 1 2 2 2 2 2 2 2 3 3 3 3 3 4 4 4
6 6 6 6 6 5 5 5 4 4 4 4 3 3 3 3 2 2 2 2 2 2 2 2 2 2 2 2 2 2 2 2 2 2 2 3 3 3 3 3 3 3 3 4 4 4 4 4 4 4 4 4 4 4 4 4 4 4 3 3 3 3 3 3 3 3 3 3 3 3 3 3 3 2 2 2 2 2 2 2 2 2 1 1 1 1 1 1 1 2 2 2 2 2 2 2 3 3 3 3 3 4 4
6 6 6 6 6 5 5 5 4 4 4 4 3 3 3 3 2 2 2 2 2 2 2 2 2 2 2 2 2 2 2 2 2 3 3 3 3 3 3 3 4 4 4 4 4 4 4 4 4 4 4 4 4 4 4 4 4 4 4 4 3 3 3 3 3 3 3 3 3 3 3 3 3 3 3 2 2 2 2 2 2 2 2 2 1 1 1 1 1 1 2 2 2 2 2 2 2 2 3 3 3 3 3
6 6 6 6 6 6 5 5 5 4 4 4 3 3 3 3 2 2 2 2 2 2 2 2 2 2 2 2 2 2 2 3 3 3 3 3 3 3 4 4 4 4 4 4 4 5 5 5 5 5 5 5 4 4 4 4 4 4 4 4 3 3 3 3 3 3 3 3 3 3 3 3 3 3 3 3 3 2 2 2 2 2 2 2 2 1 1 1 1 1 1 2 2 2 2 2 2 2 2 3 3 3 3
6 6 6 6 6 6 5 5 5 4 4 4 3 3 3 3 2 2 2 2 2 2 2 2 2 2 2 2 2 2 3 3 3 3 3 4 4 4 4 4 4 4 5 5 5 5 5 5 5 5 5 5 5 5 4 4 4 4 4 4 3 3 3 3 3 3 2 2 2 2 2 2 3 3 3 3 3 3 3 2 2 2 2 2 2 2 1 1 1 1 1 1 2 2 2 2 2 2 2 2 2 2 2
7 6 6 6 6 6 5 5 5 4 4 4 3 3 3 3 2 2 2 2 2 2 2 2 2 2 2 2 2 3 3 3 3 4 4 4 4 4 4 4 5 5 5 5 6 6 6 6 6 6 6 5 5 5 5 4 4 4 4 3 3 3 3 3 2 2 2 2 2 2 2 2 2 2 3 3 3 3 3 3 2 2 2 2 2 2 2 2 2 1 1 1 1 2 2 2 2 2 2 2 2 3 2
7 7 6 6 6 6 6 5 5 4 4 4 3 3 3 3 2 2 2 2 2 2 2 2 2 2 2 2 3 3 3 4 4 4 4 4 4 4 5 5 5 5 6 6 6 6 6 6 6 6 6 6 5 5 5 4 4 4 4 3 3 3 3 2 2 2 2 2 2 2 2 2 2 2 2 2 2 3 3 3 3 2 2 2 2 2 2 2 2 2 2 2 2 2 2 2 2 2 2 2 2 2 3
7 7 6 6 6 6 6 5 5 4 4 4 3 3 3 2 2 2 2 2 2 2 2 2 2 2 2 3 3 3 4 4 4 4 4 4 5 5 5 5 6 6 6 6 6 6 7 7 6 6 6 6 6 5 5 4 4 4 4 4 3 3 3 3 2 2 2 2 2 2 2 2 2 2 2 2 2 2 3 3 3 3 3 2 2 2 2 2 2 2 2 2 2 2 2 2 2 2 2 2 2 2 3
7 7 6 6 6 6 6 5 5 4 4 3 3 3 3 2 2 2 2 2 2 2 2 2 2 2 3 3 3 4 4 4 4 4 4 5 5 5 6 6 6 6 6 7 7 7 7 7 7 6 6 6 6 5 5 5 4 4 4 4 4 4 3 3 3 3 2 2 2 2 2 2 2 2 2 2 2 2 2 2 3 3 3 3 2 2 2 2 2 2 2 2 2 2 2 2 2 2 2 2 2 2 3
7 7 6 6 6 6 5 5 4 4 4 3 3 3 2 2 2 2 2 2 2 2 2 2 2 3 3 3 4 4 4 4 4 5 5 5 6 6 6 6 6 7 7 7 7 7 7 7 7 7 6 6 6 5 5 5 5 5 5 5 4 4 4 4 4 3 3 3 2 2 2 2 2 2 2 2 2 2 2 2 2 2 3 3 3 2 2 2 2 2 2 2 2 2 2 2 2 2 2 2 2 2 3
7 7 6 6 6 6 5 5 4 4 3 3 3 3 2 2 2 2 2 2 2 2 2 2 3 3 3 4 4 4 4 4 5 5 5 6 6 6 6 7 7 7 8 8 8 8 8 7 7 7 6 6 6 5 5 5 5 6 6 6 6 6 6 5 5 4 4 4 3 3 3 2 2 2 2 2 2 2 2 2 2 2 2 3 3 3 3 2 2 2 2 2 2 2 2 2 2 2 2 2 2 3 3
7 6 6 6 6 5 5 4 4 4 3 3 3 3 2 2 2 2 2 2 2 2 3 3 3 3 4 4 4 4 5 5 5 6 6 6 6 6 7 7 8 8 8 8 8 8 8 8 7 7 6 6 6 6 6 6 6 6 7 7 7 7 7 6 6 6 5 4 4 4 4 3 3 3 2 2 2 2 2 2 2 2 2 2 3 3 3 3 3 3 2 3 3 3 3 2 2 2 2 3 3 3 4
7 6 6 6 6 5 5 4 4 4 3 3 2 2 2 2 2 2 2 2 2 2 3 3 3 4 4 4 4 5 5 5 6 6 6 6 7 7 7 8 8 8 8 8 8 8 8 8 7 7 6 6 6 6 6 7 7 8 8 8 8 8 8 8 7 6 6 6 5 5 4 4 4 3 3 3 3 2 2 2 2 2 2 2 2 3 3 3 3 3 3 3 3 4 4 3 3 4 3 4 4 4 5
7 6 6 6 5 5 4 4 4 3 3 2 2 2 2 2 2 2 2 2 2 3 3 3 4 4 4 5 5 5 6 6 6 6 7 7 7 8 8 8 8 8 8 8 8 8 8 8 7 6 6 6 6 7 7 8 8 9 10 10 10 10 9 8 8 8 7 7 7 6 6 5 5 4 4 4 3 3 3 2 2 2 2 2 2 3 3 3 3 3 4 4 4 4 5 4 4 3 4 6 7 8 10
6 6 6 6 5 5 4 4 4 3 3 2 2 2 2 2 2 2 2 2 3 3 3 4 4 4 5 5 5 6 6 6 7 7 8 8 8 8 8 8 8 9 9 9 8 8 8 8 7 7 6 7 7 7 8 8 10 10 11 11 11 11 10 10 10 9 9 8 8 8 8 7 6 6 5 4 4 4 3 3 3 2 2 2 2 3 3 4 4 4 5 4 5 6 6 6 6 5 5 8 12 15 19
6 6 6 5 5 4 4 4 3 3 3 2 2 2 2 2 2 2 2 3 3 3 4 4 4 5 5 5 6 6 6 7 7 8 8 8 8 8 8 9 10 10 10 10 9 8 8 8 7 7 7 7 8 8 8 10 10 12 13 13 13 13 12 12 12 11 11 10 10 10 10 10 8 7 6 5 5 4 4 4 3 3 3 2 2 3 3 4 6 8 8 7 6 6 7 8 8 8 8 13 19 24 26
6 6 6 5 5 4 4 4 3 3 2 2 2 2 2 2 2 2 3 3 3 3 4 4 4 5 6 6 6 7 7 8 8 8 8 8 9 9 10 10 10 10 10 10 10 8 8 8 7 7 7 8 8 8 10 10 12 13 15 16 16 16 15 14 14 13 13 13 13 13 12 11 10 9 8 7 6 5 4 4 4 4 3 3 3 3 3 5 10 16 18 13 9 8 8 8 9 10 10 15 21 26 28
6 6 5 5 4 4 4 3 3 2 2 2 2 2 2 2 2 3 3 3 3 4 4 4 5 6 6 6 7 7 8 8 8 9 10 10 10 10 10 10 10 10 10 10 10 9 8 8 8 8 8 8 8 10 10 12 14 16 18 18 19 18 18 17 16 16 16 16 16 15 15 13 12 10 8 8 6 6 5 5 4 4 4 4 3 3 4 6 14 27 40 31 19 10 8 10 11 12 14 15 17 21 25
6 5 5 5 4 4 4 3 3 2 2 2 2 2 2 2 2 3 3 3 4 4 4 5 5 6 6 7 7 8 8 9 10 10 10 10 10 10 10 10 10 11 10 10 10 9 8 8 8 8 8 9 10 10 11 13 15 18 21 22 22 22 21 20 19 19 19 19 19 19 18 16 14 11 10 8 7 6 6 5 5 5 4 4 4 4 4 8 15 28 48 50 36 18 10 11 14 17 18 16 17 20 26
6 5 5 4 4 4 3 3 2 2 2 2 2 2 2 2 3 3 3 4 4 4 5 5 6 6 7 7 8 8 9 10 10 10 10 10 10 10 10 11 11 11 11 10 10 9 8 8 8 8 9 10 10 11 12 14 17 21 24 26 26 24 23 22 22 22 23 24 24 23 22 19 16 13 10 8 7 6 6 6 5 5 5 5 5 5 5 7 12 22 38 53 49 34 15 14 15 18 20 19 20 26 34
5 5 4 4 4 4 3 3 2 2 2 2 2 2 2 3 3 3 3 4 4 4 5 6 6 7 7 8 8 9 10 10 11 11 11 11 11 11 11 12 12 12 12 11 10 10 8 8 9 10 10 10 11 12 13 16 19 23 27 29 29 27 26 24 24 26 27 28 29 28 26 22 19 15 12 10 8 6 6 6 6 6 6 6 5 5 6 7 10 17 34 54 57 49 36 30 25 22 22 23 26 31 39
5 5 4 4 4 3 3 3 2 2 2 2 2 2 3 3 3 3 4 4 4 5 6 6 7 8 8 8 9 10 10 11 12 12 12 12 12 12 12 12 12 12 12 11 10 10 10 10 10 10 11 12 12 12 14 16 21 26 31 33 32 30 28 26 27 28 31 33 33 32 29 26 23 20 17 14 11 8 7 6 6 6 6 6 5 6 6 9 12 18 33 52 60 60 58 52 46 42 38 35 34 36 39
5 4 4 4 4 3 3 2 2 2 2 2 2 3 3 3 3 4 4 4 5 5 6 7 8 8 9 10 10 11 12 12 12 13 13 12 12 12 12 13 13 13 12 12 11 10 10 10 11 12 13 13 12 13 14 18 23 29 35 37 36 34 30 29 30 32 34 36 36 35 33 32 30 30 28 26 22 17 12 10 8 7 6 6 6 6 8 13 19 27 37 52 61 65 64 61 62 62 60 52 48 45 42
4 4 4 4 3 3 3 2 2 2 2 2 2 3 3 3 4 4 4 4 5 6 6 7 8 9 10 10 11 12 13 13 14 14 14 13 13 13 13 14 14 13 13 12 12 11 10 11 12 13 15 14 14 14 15 20 26 33 40 42 40 37 33 31 32 34 36 38 38 38 39 42 44 46 47 45 40 34 28 22 17 13 10 8 8 10 12 18 28 39 48 60 67 70 68 66 66 68 69 62 58 56 55
4 4 4 4 3 3 3 2 2 2 2 2 3 3 3 4 4 4 4 5 6 6 7 8 8 10 11 12 13 14 14 15 15 15 14 14 14 14 14 14 14 14 14 13 12 12 11 12 13 15 16 16 16 16 18 24 30 38 44 46 44 40 36 33 34 35 38 39 40 43 47 54 60 64 66 65 62 56 48 40 32 26 19 16 14 16 20 26 36 46 57 68 75 77 74 68 67 68 68 66 62 62 67
4 4 4 4 3 3 3 2 2 2 2 2 3 3 3 4 4 4 5 5 6 6 7 8 9 10 12 13 14 16 16 16 16 16 15 15 15 15 14 15 15 15 15 14 13 12 12 13 14 17 18 18 18 19 22 28 35 42 47 49 47 43 39 36 36 38 40 40 43 48 56 63 68 72 73 73 72 69 65 58 50 42 34 28 24 24 29 36 42 49 58 71 78 81 80 74 72 70 68 66 65 68 74
4 4 4 4 3 3 3 2 2 2 2 2 3 3 4 4 4 5 5 6 6 7 8 8 10 11 12 14 16 17 18 18 17 17 16 16 16 16 16 15 16 16 15 15 14 14 13 14 16 18 21 21 21 23 26 32 38 44 50 52 51 47 43 41 40 41 42 43 46 52 60 65 69 72 74 75 74 74 72 69 64 58 51 44 38 34 36 42 46 51 55 67 77 84 84 82 80 76 72 73 74 76 78
4 4 4 3 3 3 3 2 2 2 2 2 3 3 4 4 4 5 6 6 7 7 8 9 10 11 13 15 17 18 19 19 18 18 17 16 16 16 16 16 16 16 16 16 15 14 14 16 18 20 23 24 25 27 31 35 40 47 53 56 56 53 49 47 46 45 44 45 48 53 58 60 62 66 71 74 76 76 75 74 71 68 65 61 55 49 45 47 50 53 54 60 71 81 85 85 84 83 80 81 81 80 81
4 4 4 3 3 3 3 2 2 2 2 3 3 3 4 4 5 5 6 6 7 8 8 10 11 12 14 16 18 19 20 20 19 18 18 18 17 17 17 17 17 17 16 16 16 16 16 18 20 23 26 27 29 31 34 37 42 49 57 60 61 59 55 52 50 48 46 46 47 50 52 54 57 60 64 69 74 77 78 76 75 74 72 71 69 66 62 59 58 58 58 57 65 76 85 85 85 85 85 85 85 84 84
4 4 4 3 3 3 3 2 2 2 2 3 3 4 4 5 5 6 6 7 8 8 10 10 12 14 15 16 18 20 21 20 20 19 19 19 19 18 18 18 18 17 17 17 17 17 17 19 22 26 29 32 33 34 34 37 42 50 59 64 66 64 60 57 53 50 47 46 46 48 50 52 53 54 56 61 67 74 79 79 78 76 76 74 74 75 74 72 70 69 68 63 65 72 83 84 84 84 86 86 86 86 86
4 4 4 4 3 3 3 2 2 2 2 3 3 4 4 5 6 6 7 8 8 10 10 11 12 14 16 18 20 21 22 21 21 20 20 20 20 20 19 18 18 18 18 18 18 18 18 20 24 27 31 34 35 35 34 36 42 50 60 66 69 68 64 60 56 52 48 46 46 48 51 51 50 49 50 56 62 70 78 80 80 79 78 79 79 79 79 78 77 76 77 74 71 73 81 84 84 84 85 85 86 86 86
4 4 4 4 3 3 3 2 2 2 2 3 3 4 4 5 6 7 8 8 9 10 11 12 13 14 17 19 21 22 23 22 22 22 21 20 21 20 20 19 18 18 18 18 19 19 20 21 24 28 32 36 36 36 34 36 42 49 58 66 70 70 68 63 58 55 52 49 49 50 54 53 50 48 48 54 61 70 79 80 80 80 80 80 80 80 80 80 79 79 79 79 77 76 79 82 84 84 85 85 85 85 85
4 4 4 4 3 3 3 3 2 2 2 3 3 4 4 5 6 7 8 9 10 10 12 13 14 16 17 20 21 22 23 23 23 23 22 22 21 21 21 19 18 18 19 20 20 20 21 23 26 28 33 37 38 37 35 37 42 48 56 64 69 71 70 68 64 61 58 54 53 54 57 57 54 50 48 51 57 65 76 80 80 80 78 79 80 80 80 79 79 79 79 79 78 78 77 80 82 83 84 84 84 83 83
4 4 4 4 4 3 3 3 2 2 2 3 3 4 4 5 6 8 8 10 10 11 12 14 15 17 19 20 22 23 23 24 24 24 23 22 22 21 21 20 19 19 21 26 27 26 23 26 28 30 32 38 40 40 36 37 40 46 54 60 66 70 72 71 70 68 66 62 58 57 59 62 59 54 48 48 51 58 71 78 81 80 78 78 78 78 78 77 77 78 78 78 78 78 76 77 78 80 81 82 82 82 82
4 4 4 4 4 3 3 3 2 2 3 3 3 4 4 6 7 8 9 10 11 12 13 15 17 19 21 22 23 23 24 24 24 24 24 24 23 22 20 20 20 21 24 31 34 33 29 30 31 32 32 38 42 42 39 38 40 46 53 58 63 68 74 74 72 71 70 68 64 61 60 65 64 60 51 46 47 54 66 77 80 80 79 76 76 74 75 74 74 74 76 76 77 76 76 75 76 77 78 78 79 79 80
4 4 4 4 4 3 3 3 3 2 2 3 3 4 4 6 7 8 10 10 11 12 14 16 18 21 23 24 24 24 24 24 24 24 24 24 24 23 22 21 21 22 22 24 27 31 34 34 34 34 34 37 41 43 42 40 41 45 51 56 60 65 73 76 75 73 71 70 68 66 64 67 69 66 57 49 46 50 61 76 80 80 80 78 76 74 74 73 72 72 73 74 74 74 74 74 74 76 77 78 77 77 78
3 4 4 4 4 3 3 3 3 2 2 3 3 4 5 6 7 8 10 10 12 13 15 18 20 22 24 26 26 24 24 24 25 26 26 26 25 24 23 23 23 24 27 28 29 30 33 37 40 40 37 36 39 42 44 42 42 44 48 52 57 62 69 76 77 76 75 73 71 70 68 70 72 72 65 55 48 49 59 74 79 80 80 80 79 77 74 73 72 71 71 72 74 74 74 72 73 74 76 78 78 78 78
3 4 4 4 4 3 3 3 3 3 3 3 3 4 5 6 7 8 10 10 12 14 16 19 22 24 26 26 26 26 26 26 26 26 26 26 26 25 24 24 24 25 27 31 34 36 37 40 44 46 44 40 39 40 43 42 42 42 45 49 53 58 64 71 76 78 77 74 72 71 70 74 76 76 73 62 52 49 60 73 79 81 81 81 80 78 76 74 72 70 70 68 70 73 75 73 72 72 74 76 78 78 78
3 4 4 4 4 4 3 3 3 3 3 3 3 4 5 6 7 8 10 11 12 14 17 20 23 26 26 27 27 27 26 26 27 27 27 27 27 26 26 25 24 25 26 30 34 39 42 45 47 49 49 46 43 40 42 42 42 42 43 45 49 54 60 66 71 75 77 76 74 72 74 78 78 78 77 69 57 50 58 70 76 80 80 80 78 76 75 72 70 68 65 63 64 67 68 68 66 64 66 69 72 74 74
3 4 4 4 4 4 3 3 3 3 3 3 3 4 5 6 7 8 10 11 13 15 18 21 24 26 28 28 28 28 27 28 28 28 28 28 28 28 28 27 26 26 26 28 32 38 44 48 51 52 53 52 47 43 42 42 41 40 41 42 44 49 56 62 66 70 76 76 76 76 78 78 78 78 78 74 64 55 52 63 72 77 79 78 77 76 76 74 74 73 72 64 62 62 61 59 54 50 51 52 54 58 61
4 4 4 4 4 4 3 3 3 3 3 3 3 4 5 6 7 8 10 11 13 16 20 23 26 27 29 29 29 29 28 28 29 30 30 30 29 29 29 28 28 28 28 30 34 38 43 48 52 54 54 52 48 45 42 43 42 40 38 37 39 43 50 58 63 66 70 76 77 78 80 79 79 79 79 76 72 67 62 69 74 77 78 78 78 78 78 77 77 76 75 68 63 59 55 51 46 42 38 37 36 37 40
Wind_Speed
28 28 28 28 28 28 28 29 29 29 30 30 30 31 31 32 32 33 33 34 34 35 36 36 37 37 37 38 38 39 40 40 41 42 43 43 44 45 45 46 46 46 46 47 47 47 47 47 46 46 46 46 46 45 45 44 43 43 42 42 41 41 41 41 42 43 44 44 44 44 44 45 46 47 48 49 50 51 51 51 51 52 52 52 52 52 52 52 51 51 50 50 50 49 49 48 47 46 46 45 45 44 44
28 28 28 28 28 28 29 29 29 30 30 31 31 32 32 33 33 34 34 35 36 36 37 38 38 39 40 40 41 41 42 43 44 44 45 46 46 47 48 49 49 49 50 50 50 51 50 50 50 50 50 50 50 50 49 49 48 47 46 45 44 43 43 43 43 44 45 45 46 46 46 46 47 47 48 50 51 52 52 53 53 53 53 53 53 53 53 53 53 53 52 51 51 51 50 50 49 48 47 47 46 46 45
28 28 29 29 29 29 29 30 30 31 31 32 32 33 34 34 35 35 36 37 37 38 39 39 40 41 41 42 43 43 44 45 45 46 47 47 48 49 50 50 51 52 52 53 53 53 53 53 53 53 53 53 53 53 53 53 52 51 50 49 47 46 45 44 44 45 45 46 47 48 48 48 48 48 49 50 51 52 53 54 54 54 54 55 55 55 55 55 54 54 54 53 53 52 52 51 51 50 49 48 48 47 47
29 29 29 29 30 30 30 31 31 32 32 33 34 35 35 36 37 37 38 38 39 40 40 41 41 42 43 43 44 45 45 46 47 48 48 49 50 50 51 52 53 53 54 54 55 55 55 55 55 55 55 56 56 56 56 56 56 55 54 53 52 50 48 47 46 46 46 47 48 49 50 50 50 50 50 51 52 53 54 55 56 56 56 56 56 56 56 56 56 56 55 55 54 54 54 53 52 52 51 50 49 49 48
29 30 30 30 31 31 32 32 33 34 34 35 36 37 37 38 39 39 40 40 41 41 42 42 43 43 44 44 45 46 46 47 48 49 50 50 51 52 53 53 54 55 55 56 56 57 57 57 57 57 57 57 57 58 58 58 58 58 57 57 55 54 52 50 48 47 47 48 48 50 51 52 52 52 52 52 53 54 55 56 56 57 57 57 57 57 58 57 57 57 57 56 56 55 55 55 54 53 53 52 51 50 50
30 30 31 31 32 33 33 34 35 35 36 37 38 38 39 40 40 41 41 42 42 43 43 43 44 44 45 45 46 47 47 48 49 50 51 52 52 53 54 55 55 56 57 57 58 58 59 59 59 59 59 59 59 59 59 59 59 59 59 58 58 57 56 54 52 51 49 49 49 49 51 52 54 54 55 55 55 55 56 56 57 58 58 59 59 59 59 59 59 59 58 58 57 57 57 56 56 55 54 54 53 52 51
31 31 32 33 33 34 35 36 36 37 38 39 39 40 41 41 42 42 43 43 43 44 44 44 45 45 46 46 47 47 48 49 50 51 52 53 53 54 55 56 56 57 58 58 59 59 60 60 60 60 60 60 60 60 60 60 60 59 59 59 59 59 58 57 56 55 53 51 50 50 50 52 54 56 57 57 57 57 57 57 58 59 59 60 60 60 60 60 60 60 60 59 59 59 58 58 57 57 56 55 54 53 53
32 33 33 34 34 35 36 37 38 39 39 40 41 41 42 42 43 43 44 44 44 45 45 45 46 46 47 47 48 48 49 50 51 51 52 53 54 55 56 56 57 58 58 59 59 60 61 61 61 61 61 61 61 61 60 60 60 59 59 59 59 59 59 58 58 58 58 55 53 52 52 52 53 55 57 58 59 59 59 59 59 60 60 61 61 62 62 62 62 62 61 61 60 60 60 59 59 58 58 57 56 55 54
33 34 34 35 35 36 37 38 39 40 40 41 42 42 43 43 44 44 44 45 45 46 46 47 47 47 48 48 48 49 50 50 51 52 52 53 54 55 56 57 58 58 59 59 60 60 61 61 61 62 62 62 62 61 61 61 60 59 59 58 58 58 58 58 58 59 59 59 58 56 54 53 54 55 57 59 60 61 61 61 61 61 61 62 62 63 63 63 63 63 63 62 62 62 61 61 60 60 59 59 58 57 56
34 34 35 36 36 37 38 39 40 40 41 42 42 43 43 44 44 45 45 46 46 47 47 48 48 48 49 49 49 50 50 51 51 52 53 53 54 55 56 57 58 58 59 59 60 60 61 61 61 62 62 62 62 62 61 61 60 59 58 58 57 57 57 58 58 58 59 60 60 59 59 57 57 57 57 58 61 62 62 62 62 63 63 63 64 64 64 64 65 65 64 64 64 63 63 62 62 61 61 60 60 59 58
35 35 36 36 37 38 39 40 40 41 41 42 43 43 44 44 45 46 46 47 47 48 48 49 49 49 50 50 50 50 51 51 52 52 53 54 54 55 56 57 57 58 58 59 59 60 60 60 60 61 61 61 61 61 61 60 60 59 58 57 57 57 57 57 57 57 58 59 59 60 61 61 61 60 59 59 60 63 64 64 64 64 65 65 65 65 65 66 66 66 66 66 65 65 64 64 63 63 62 62 61 61 60
35 36 36 37 38 39 39 40 41 41 42 43 43 44 45 45 46 46 47 48 48 49 49 50 50 50 51 51 51 51 52 52 53 53 54 55 55 56 56 57 57 58 58 58 59 59 59 59 59 60 60 60 60 60 60 60 59 58 58 57 56 56 56 56 56 57 57 58 59 60 61 62 62 62 62 61 61 63 65 66 66 66 66 67 67 67 67 67 67 67 67 67 67 67 66 65 65 64 64 63 63 62 62
36 36 37 37 38 39 40 40 41 42 42 43 44 45 45 46 47 47 48 48 49 49 50 51 51 51 52 52 52 52 53 53 54 54 55 55 56 56 56 57 57 57 57 58 58 58 58 58 58 58 58 58 58 59 59 59 58 58 57 57 56 56 56 56 56 56 57 57 58 59 60 61 62 63 63 63 62 63 65 67 68 68 68 68 68 68 68 68 69 69 69 69 69 68 68 67 67 66 66 65 65 64 63
36 37 37 38 39 39 40 41 41 42 43 44 45 45 46 47 47 48 48 49 49 50 51 51 52 52 53 53 53 53 54 54 55 55 56 56 57 57 57 57 57 57 57 57 57 57 57 57 57 57 57 57 57 57 58 57 57 57 57 56 56 56 56 56 56 56 56 57 57 58 59 60 62 63 64 64 64 64 65 67 69 70 70 70 70 70 70 70 70 70 70 70 70 70 70 69 68 68 67 67 66 65 65
36 37 38 38 39 40 40 41 42 43 44 44 45 46 47 47 48 48 49 49 50 51 51 52 53 53 54 54 55 55 55 56 56 57 57 57 58 58 58 58 58 58 57 57 57 57 57 57 57 57 56 56 56 56 56 56 56 56 56 56 56 56 56 56 56 57 57 57 57 58 59 60 61 62 64 64 65 65 66 67 70 72 72 72 72 72 72 72 72 72 72 72 72 72 71 71 70 69 69 68 68 67 67
37 38 38 39 40 40 41 42 43 43 44 45 46 47 47 48 48 49 50 50 51 51 52 53 54 54 55 56 57 57 57 58 58 58 58 58 59 59 59 59 59 58 58 58 57 57 57 57 57 56 56 56 56 56 56 56 56 56 56 56 56 56 57 57 57 57 57 57 58 58 58 59 60 62 63 64 65 66 67 68 70 72 74 74 74 74 74 74 74 74 74 73 74 73 73 73 72 71 70 70 69 69 68
37 38 39 40 40 41 42 43 43 44 45 46 46 47 48 48 49 50 50 51 52 52 53 54 55 56 57 58 58 59 59 60 60 60 60 60 60 60 60 60 60 60 59 59 58 58 58 57 57 57 56 56 56 56 56 56 56 56 56 56 56 57 57 57 57 58 58 58 58 59 59 59 60 62 63 64 66 67 68 68 70 72 75 76 75 75 75 76 76 76 75 75 75 75 75 74 74 73 72 72 71 70 70
38 39 40 40 41 42 43 43 44 45 46 46 47 48 48 49 49 50 51 51 52 53 54 55 56 57 58 59 60 60 61 61 61 62 62 62 62 62 62 62 61 61 61 60 60 60 59 59 58 58 57 57 57 57 56 56 56 56 56 56 56 57 57 57 57 58 58 59 59 59 60 60 61 61 63 64 66 67 68 69 71 73 75 77 77 76 77 77 77 78 77 77 77 77 76 76 76 75 74 73 73 72 71
39 40 40 41 42 43 44 44 45 46 46 47 48 48 49 49 50 51 51 52 53 54 55 56 57 58 59 60 61 61 62 62 63 63 63 63 63 63 63 63 63 63 63 62 62 62 61 61 60 60 59 59 58 58 58 57 57 57 56 56 57 57 57 57 57 58 58 59 59 60 60 61 61 62 63 64 66 67 69 70 71 73 76 78 79 78 78 78 79 79 79 79 79 78 78 78 77 77 76 75 75 74 73
39 40 41 42 43 44 44 45 46 46 47 47 48 49 49 50 51 52 52 53 54 55 56 57 58 59 60 61 61 62 63 63 64 64 64 64 64 64 64 64 64 64 64 64 64 63 63 63 62 62 61 61 60 60 59 59 58 58 57 57 57 57 57 57 57 58 58 59 59 60 61 61 62 62 63 64 65 67 69 70 72 74 76 79 80 80 79 78 79 80 81 81 80 80 80 80 79 79 78 77 76 76 75
40 41 42 43 43 44 45 46 46 47 48 48 49 50 50 51 52 53 53 54 55 56 57 58 59 60 60 61 62 63 63 64 64 65 65 65 65 65 65 65 65 65 65 65 65 65 65 65 64 64 64 63 62 62 61 60 60 59 59 59 58 58 58 58 58 58 58 59 59 60 61 61 62 63 64 64 65 67 69 70 72 74 76 78 81 82 81 80 79 80 81 82 82 82 82 81 81 80 80 79 78 77 76
41 41 42 43 44 45 45 46 47 48 48 49 50 51 52 52 53 54 55 56 56 57 58 59 59 60 61 62 62 63 64 64 65 65 65 65 65 65 65 66 66 66 66 66 66 66 66 66 66 66 65 65 64 64 63 62 61 61 61 60 60 60 60 60 60 60 60 60 60 60 61 61 62 64 64 65 66 67 68 70 72 74 76 78 81 83 84 82 80 80 81 82 83 83 83 83 83 82 81 80 80 79 78
41 42 43 44 44 45 46 47 48 48 49 50 51 52 53 54 54 55 56 57 57 58 59 59 60 61 61 62 63 63 64 64 65 65 65 66 66 66 66 66 66 66 67 67 67 67 67 67 67 67 67 67 66 65 65 64 63 63 62 62 62 62 62 62 62 62 62 61 61 61 61 62 62 64 65 66 66 67 68 69 71 73 75 77 80 83 85 84 82 80 80 82 83 84 84 84 84 84 83 82 81 80 80
42 43 44 44 45 46 47 48 49 49 50 51 52 53 54 55 55 56 57 58 58 59 59 60 61 61 62 62 63 63 64 64 65 65 65 65 66 66 66 66 67 67 67 67 67 67 67 68 68 68 68 68 67 67 66 66 65 65 64 64 64 64 64 64 64 64 64 64 63 63 63 62 63 64 65 66 67 67 68 69 71 73 75 77 79 81 84 86 85 82 80 81 82 84 84 84 84 84 84 83 82 81 81
43 43 44 45 46 47 48 49 49 50 51 52 53 53 54 55 56 57 57 58 59 59 60 60 61 62 62 63 63 63 64 64 64 65 65 65 65 66 66 66 67 67 67 67 68 68 68 68 68 68 68 68 68 68 68 67 66 66 66 65 65 65 65 65 65 65 65 65 65 65 64 64 64 64 65 66 67 68 69 69 70 72 74 76 78 80 83 85 86 84 81 81 81 83 84 85 85 85 85 84 83 82 81
43 44 45 46 47 48 49 49 50 51 52 53 53 54 55 56 57 57 58 58 59 59 60 61 61 62 62 62 63 63 64 64 64 64 65 65 65 65 66 66 67 67 67 67 68 68 68 68 68 68 68 68 68 68 68 67 67 66 66 65 65 65 65 65 65 65 65 66 66 66 66 66 66 66 66 67 68 69 69 70 70 72 73 75 77 79 81 84 85 85 83 81 81 82 83 84 85 85 85 85 84 82 81
44 45 46 47 48 49 49 50 51 52 53 53 54 55 55 56 57 58 58 59 59 59 60 61 61 61 62 62 63 63 64 64 64 64 64 65 65 65 66 66 67 67 67 67 67 67 67 68 68 68 68 68 68 68 67 67 66 65 65 64 64 64 64 64 64 64 64 65 65 66 66 66 66 66 67 67 68 69 70 70 71 72 73 74 76 77 79 82 84 85 84 82 80 80 82 83 84 84 85 85 84 83 81
45 45 46 47 48 49 50 51 52 52 53 54 54 55 56 56 57 58 58 59 59 59 60 60 61 61 62 62 63 63 64 64 64 64 64 65 65 65 66 66 67 67 67 67 67 67 67 67 67 67 67 67 66 66 66 65 64 63 62 62 62 62 62 62 62 62 63 63 64 64 65 65 66 66 67 68 68 69 70 71 71 72 73 74 75 76 78 80 82 84 84 82 80 79 80 81 82 83 84 84 84 83 81
45 46 47 48 49 50 50 51 52 53 53 54 55 55 56 56 57 58 58 59 59 59 60 60 61 61 61 62 63 63 64 64 64 64 64 64 65 65 66 66 66 66 66 66 67 67 67 67 67 66 66 65 64 64 63 62 61 60 59 59 59 59 59 59 60 60 61 61 62 62 63 64 64 65 66 67 68 69 70 71 72 72 73 74 75 76 77 78 80 82 83 82 80 79 78 79 80 81 82 83 83 83 81
46 47 47 48 49 50 51 51 52 53 53 54 55 55 56 57 57 57 58 59 59 59 60 60 60 61 61 62 63 63 64 64 64 64 64 64 65 65 65 66 66 66 66 66 66 66 66 66 66 65 64 63 62 61 59 58 57 57 56 56 56 56 57 57 58 59 59 60 60 61 62 62 63 63 64 65 67 68 70 71 72 73 73 74 75 76 76 77 78 80 81 82 80 78 77 77 78 79 80 81 81 82 81
46 47 48 48 49 50 51 52 52 53 53 54 54 55 56 56 57 57 58 58 59 59 59 60 60 61 61 62 62 63 64 64 64 64 64 64 65 65 65 65 65 65 65 65 65 66 66 65 65 64 63 61 59 57 56 55 54 54 54 54 54 55 56 56 57 58 59 60 60 61 61 61 61 62 62 63 64 66 68 70 71 72 73 74 75 76 76 77 77 78 79 80 79 78 76 75 76 77 78 78 79 80 80
46 47 48 49 49 50 51 52 52 53 53 54 54 55 56 56 56 57 58 58 58 59 59 59 60 60 61 61 62 63 63 64 64 64 64 64 64 65 65 65 65 65 65 65 65 65 65 65 64 63 61 59 56 54 53 53 52 52 52 53 53 54 55 56 57 58 59 60 60 61 61 61 61 61 61 61 62 64 66 68 70 71 73 74 75 76 76 77 77 77 77 78 78 77 75 74 74 75 75 76 77 77 78
47 47 48 49 49 50 51 52 52 53 53 54 54 55 55 56 56 56 57 57 58 58 58 59 59 60 60 61 62 63 63 64 64 64 64 64 64 64 65 65 64 64 64 64 64 64 64 64 63 61 59 56 54 52 51 51 51 52 52 53 54 55 56 56 57 58 59 60 60 61 61 62 62 62 61 61 61 62 63 65 68 70 71 73 74 75 76 77 77 77 77 76 76 75 74 72 72 72 73 74 74 74 75
47 47 48 49 49 50 51 51 52 52 53 53 54 54 55 55 56 56 56 57 57 58 58 58 59 60 60 61 61 62 63 63 64 64 64 64 64 64 64 64 64 64 64 64 64 64 64 63 61 59 57 54 51 50 49 50 50 51 52 53 54 55 56 57 57 58 58 59 59 60 61 62 62 62 62 61 61 61 61 63 65 67 69 71 73 74 76 76 77 77 76 75 75 74 73 71 70 70 71 71 70 70 70
47 47 48 49 49 50 50 51 52 52 53 53 54 54 54 55 55 55 56 56 57 57 57 58 58 59 60 61 61 62 63 63 64 64 64 64 64 64 64 64 64 64 64 64 64 63 63 62 60 57 54 51 49 48 48 49 50 51 53 54 55 56 56 57 57 57 57 57 57 58 59 60 61 61 62 61 61 60 60 61 63 65 67 69 71 73 74 76 76 76 76 75 74 73 71 69 68 67 67 67 66 66 66
47 47 48 48 49 50 50 51 51 52 52 53 53 54 54 54 55 55 55 56 56 56 57 57 58 58 59 60 61 62 63 63 64 64 64 64 64 64 63 63 63 63 63 64 64 63 62 60 58 55 52 50 48 48 48 49 50 51 53 54 55 56 57 57 57 56 56 55 55 55 55 57 58 59 60 60 60 59 59 60 61 63 65 67 69 71 72 74 74 74 74 74 73 72 70 68 65 63 62 63 63 63 64
47 47 48 48 49 49 50 50 51 51 52 52 53 53 54 54 54 55 55 55 55 56 56 57 57 58 59 60 61 62 63 63 64 64 64 64 64 63 63 63 63 63 63 63 63 62 61 59 56 53 50 48 47 47 48 49 50 51 52 54 55 56 57 57 56 56 55 53 53 52 52 53 54 56 57 58 58 58 58 58 59 61 63 65 67 68 70 70 69 68 69 71 72 71 69 67 63 60 59 60 61 62 64
47 47 48 48 49 49 49 50 50 51 51 52 52 53 53 53 54 54 54 54 55 55 56 56 57 57 58 59 60 61 62 63 63 63 63 63 63 63 63 62 62 62 63 63 62 61 60 58 54 51 48 47 46 47 48 49 50 51 52 53 55 56 56 57 57 56 55 54 52 52 51 51 52 52 53 54 55 55 55 55 56 58 60 62 64 66 67 67 65 63 63 66 68 69 68 64 60 56 55 57 60 62 63
46 47 47 48 48 49 49 49 50 50 51 51 52 52 52 53 53 54 54 54 54 55 55 56 56 57 58 59 60 61 62 63 63 63 63 63 63 63 62 62 62 62 62 62 61 60 58 56 53 49 47 46 46 47 48 49 49 50 52 53 55 56 57 57 57 57 56 55 54 53 52 51 50 50 50 50 51 51 51 52 53 55 57 59 61 63 64 64 62 59 58 61 64 66 65 62 58 54 53 55 58 60 60
46 46 47 47 48 48 48 49 49 49 50 50 51 51 52 52 53 53 53 53 54 54 55 55 56 57 58 59 60 61 62 62 63 63 63 63 62 62 62 62 61 61 61 61 60 59 57 54 51 48 45 45 45 46 47 48 49 50 51 53 55 56 57 58 58 58 58 57 56 55 53 51 49 48 47 47 47 47 47 48 49 51 54 56 59 60 61 62 61 59 57 57 60 62 61 59 57 54 53 53 54 56 56
46 46 47 47 47 48 48 48 48 49 49 49 50 51 51 52 52 52 53 53 53 53 54 55 55 56 57 58 59 60 61 62 62 62 63 62 62 62 61 61 61 61 61 60 59 58 55 53 49 47 45 44 45 46 47 48 49 50 51 53 55 56 57 58 59 59 59 58 57 56 53 51 49 46 44 43 43 43 43 44 46 48 51 54 56 58 59 60 60 58 55 53 56 59 58 56 54 52 51 50 51 52 54
45 46 46 47 47 47 47 48 48 48 48 49 49 50 50 51 51 52 52 52 52 53 53 54 55 56 56 58 59 60 61 62 62 62 62 62 62 61 61 61 61 60 60 59 58 56 54 51 48 45 44 44 44 45 46 47 48 50 51 53 55 56 57 58 59 59 59 58 57 55 53 50 47 44 42 40 39 39 39 40 42 45 48 51 53 55 56 56 56 54 51 52 54 55 56 54 52 49 47 46 48 50 53
45 45 46 46 47 47 47 47 47 47 48 48 48 49 50 50 51 51 51 52 52 52 53 53 54 55 56 57 58 59 60 61 62 62 61 61 61 61 61 60 60 60 59 58 56 55 52 49 46 44 43 43 44 45 46 47 48 49 51 53 54 56 57 58 59 59 58 57 55 53 51 48 45 42 40 38 36 35 36 37 38 41 43 46 49 50 51 51 50 48 46 48 51 53 53 52 51 49 46 46 46 48 51
44 45 45 46 46 46 47 47 47 47 47 47 48 48 49 49 50 50 51 51 51 52 52 53 53 54 56 57 58 59 60 60 61 61 61 61 61 60 60 60 59 59 58 57 55 53 51 48 45 43 42 42 43 44 45 47 48 49 50 52 54 55 56 57 58 57 56 55 53 50 48 45 43 40 38 36 34 33 33 33 34 36 38 41 43 44 45 46 45 43 42 43 46 48 48 49 50 50 49 49 49 49 50
44 44 45 45 46 46 46 46 46 46 46 47 47 47 48 48 49 50 50 51 51 51 51 52 53 53 54 55 57 58 59 59 60 60 60 60 60 60 60 60 59 58 58 56 54 52 50 47 44 43 42 41 42 43 45 46 47 48 49 50 52 54 55 56 56 56 54 52 50 48 45 43 40 38 37 35 33 32 31 30 31 32 34 36 38 40 41 42 42 41 39 39 41 43 45 47 49 50 51 51 51 51 51
44 44 44 45 45 46 46 46 46 46 46 46 46 47 47 48 48 49 50 50 51 51 51 52 52 53 54 54 56 57 58 59 59 59 59 59 59 59 59 59 59 58 56 55 53 51 49 46 44 42 41 40 41 42 44 45 46 47 47 49 50 52 53 54 55 54 52 50 48 45 43 40 38 37 35 33 32 31 30 29 29 29 30 32 34 36 38 39 41 40 39 39 39 40 43 46 47 49 50 51 52 52 51
43 43 44 44 45 45 45 45 45 45 45 45 46 46 47 47 48 48 49 50 50 51 51 51 52 53 53 54 54 55 56 57 58 58 59 59 59 58 58 58 58 57 56 54 53 50 48 46 43 41 40 39 40 41 42 43 44 45 46 47 48 50 51 52 53 52 50 47 45 42 40 38 36 35 33 31 31 30 30 30 29 28 28 29 31 33 35 37 39 41 42 42 41 40 42 43 45 48 49 49 50 51 52
43 43 43 44 44 44 45 45 45 45 45 45 45 45 46 47 47 48 48 49 50 50 51 51 51 52 53 53 53 54 55 56 56 57 57 58 59 58 57 56 56 57 56 54 53 50 48 45 43 41 39 38 38 39 40 42 43 44 44 46 47 48 49 50 50 49 47 44 42 40 38 36 35 32 31 30 29 29 29 29 28 27 27 27 28 30 32 35 38 40 43 45 45 43 42 42 43 45 47 48 49 51 52
43 43 43 43 44 44 44 44 44 44 44 44 45 45 45 46 47 47 48 49 49 50 51 51 51 51 52 53 53 53 54 54 55 56 56 56 57 58 59 58 56 56 56 54 53 51 48 45 42 40 38 37 37 38 39 40 41 42 43 44 45 47 47 48 48 47 44 41 39 38 37 35 32 30 29 28 28 28 28 27 27 26 26 25 26 27 30 32 35 38 41 45 48 48 45 43 42 43 45 47 49 50 51
42 42 43 43 43 43 44 44 44 44 44 44 44 44 45 45 46 47 48 49 49 50 50 51 51 51 51 52 52 52 52 53 54 55 56 56 56 56 58 59 58 57 56 54 52 50 48 45 42 39 37 36 35 36 37 38 39 40 41 42 44 45 46 46 46 45 42 39 37 36 35 33 30 28 27 26 26 27 27 26 25 24 23 24 24 25 27 30 33 36 39 43 48 50 48 45 43 43 44 45 47 48 49
42 42 42 43 43 43 43 43 43 43 43 43 44 44 44 45 46 46 47 48 49 49 49 50 51 51 50 50 51 51 51 52 53 53 53 55 55 54 54 56 57 58 57 56 53 50 47 44 42 39 37 35 34 35 36 37 37 38 39 41 42 44 44 44 44 43 41 39 36 35 33 31 29 27 26 25 26 26 27 25 24 22 21 21 22 24 26 28 31 35 38 42 46 50 50 47 45 44 44 45 46 46 46
42 42 42 42 42 42 43 43 43 43 43 43 43 44 44 44 45 46 46 47 48 49 49 49 50 51 51 50 49 50 50 50 51 51 51 52 54 54 53 53 54 55 56 57 56 53 48 45 43 40 37 35 34 34 35 36 36 37 37 39 41 42 43 42 42 42 41 39 37 34 32 29 27 26 25 25 26 26 26 25 23 22 21 20 21 22 25 27 31 34 37 40 45 50 52 50 47 46 46 46 47 46 45
41 41 41 41 42 42 42 42 42 43 43 43 43 43 44 44 44 45 46 47 47 48 49 49 49 50 51 50 49 48 49 48 49 50 50 50 51 53 54 52 50 50 51 52 54 54 50 47 45 42 39 36 35 34 35 35 36 36 36 38 39 41 41 41 40 40 40 39 37 35 32 29 26 24 23 24 25 26 26 25 22 22 22 21 21 21 23 27 30 34 37 40 44 49 52 52 50 49 48 48 48 48 46
41 41 41 41 41 41 42 42 42 42 42 42 42 43 43 44 44 45 45 46 47 48 48 49 49 49 50 50 49 48 47 47 47 48 49 49 48 49 50 51 50 49 47 46 47 50 51 48 46 44 41 38 35 34 34 34 35 35 36 37 38 40 40 39 38 37 38 38 38 36 33 30 26 23 22 22 23 24 26 25 22 21 21 22 22 23 23 26 30 33 36 39 43 48 52 53 52 51 50 49 49 49 48
40 40 40 41 41 41 41 42 42 42 42 42 42 43 43 43 44 44 45 46 46 47 48 48 49 49 48 49 49 48 46 46 46 46 47 48 47 45 45 47 49 50 49 47 46 46 48 48 48 46 43 39 36 35 34 34 35 35 35 36 37 38 38 37 36 35 36 37 37 37 35 32 28 24 21 20 21 23 26 25 22 20 20 23 24 24 25 26 29 32 35 39 42 47 51 53 53 52 51 51 51 51 50
40 40 40 40 40 41 41 41 42 42 42 42 42 42 43 43 43 44 44 45 46 46 47 47 48 48 48 47 48 48 47 46 45 45 44 45 46 45 44 43 43 45 47 48 48 47 47 47 48 48 45 41 37 36 35 34 34 35 35 35 36 37 37 36 35 34 34 35 36 36 35 33 29 24 21 19 20 22 25 25 23 19 18 21 23 25 26 26 28 30 33 37 41 45 49 52 53 53 52 52 52 53 53
40 40 40 40 40 40 41 41 41 42 42 42 42 42 42 43 43 44 44 45 46 46 46 46 47 47 48 47 46 46 46 45 45 45 44 43 43 44 43 42 40 39 40 42 44 46 47 46 47 48 49 44 39 36 35 34 34 34 35 35 35 36 35 35 35 34 33 33 33 34 34 31 28 24 20 18 18 21 23 24 22 19 17 18 20 23 24 25 26 28 31 34 37 41 46 50 53 54 53 53 53 54 55
39 39 40 40 40 40 40 41 41 41 42 42 42 42 42 42 43 43 44 44 45 46 46 46 46 46 47 47 46 46 45 45 45 45 45 44 42 42 42 42 41 40 39 39 40 42 45 46 47 48 50 49 44 38 34 34 34 35 34 34 34 35 34 34 34 34 32 31 31 32 31 28 24 21 18 17 17 18 20 21 20 20 18 17 18 20 22 23 25 26 28 31 34 37 41 45 49 53 54 54 54 55 56
39 39 39 40 40 40 40 41 41 41 41 41 41 42 42 42 42 43 43 44 44 45 45 45 45 45 45 46 46 45 45 45 45 44 45 45 44 42 41 41 41 40 40 40 40 41 42 43 45 48 49 51 49 44 37 34 34 35 35 34 33 33 33 33 33 33 32 30 29 29 27 23 19 15 15 15 15 16 17 18 19 20 19 18 18 19 21 22 23 25 26 28 30 33 37 41 45 49 52 53 54 54 55
39 39 39 39 40 40 40 40 41 41 41 41 41 41 42 42 42 43 43 43 44 44 44 44 44 44 44 44 44 44 44 44 44 44 44 44 44 43 42 41 40 40 40 40 40 41 42 42 43 45 47 49 51 49 43 37 34 34 35 34 33 32 31 31 32 33 32 30 27 26 24 19 14 11 11 13 14 15 15 16 16 16 15 16 16 17 19 21 21 22 24 26 27 28 31 35 40 44 48 50 51 51 52
39 39 39 39 39 40 40 40 40 41 41 41 41 41 41 42 42 42 43 43 43 44 43 43 43 43 43 43 43 43 43 43 44 44 44 44 43 43 43 41 40 40 40 40 40 41 42 43 43 44 45 47 49 49 47 42 38 36 35 34 32 31 30 29 30 32 32 29 26 23 21 18 13 10 11 13 14 13 12 10 8 7 7 8 10 13 16 18 19 20 22 24 24 23 23 26 31 36 40 43 45 45 46
Wind_Direction
325 325 324 324 323 323 322 322 322 322 321 321 321 321 321 321 321 321 322 322 322 322 322 322 323 323 322 322 323 323 322 322 321 321 320 320 319 318 317 316 316 315 314 313 312 311 310 309 308 307 305 303 301 300 298 295 293 290 287 284 281 278 276 274 273 271 270 268 266 263 261 259 258 258 258 259 259 259 259 258 257 256 256 255 254 252 251 250 249 247 246 245 244 244 243 243 242 242 241 240 240 240 240
325 324 324 324 323 323 323 323 322 322 323 323 322 322 322 323 323 324 324 324 324 324 325 325 325 325 325 325 325 325 325 324 323 323 322 321 320 320 319 318 317 316 315 314 313 312 311 311 310 308 307 306 304 303 301 299 297 295 292 289 286 282 278 275 273 271 270 269 267 265 263 261 259 257 257 257 257 258 258 257 257 256 255 255 254 252 251 250 249 248 246 245 244 243 243 242 242 241 241 240 240 239 239
324 324 324 324 324 324 324 324 324 324 324 324 324 325 325 325 326 326 326 327 327 327 327 327 327 327 327 327 327 327 326 325 324 324 323 322 321 320 319 318 317 316 316 315 314 312 312 311 310 309 308 307 305 304 303 301 300 298 296 293 290 287 283 279 275 271 269 268 267 266 264 262 260 258 257 256 256 256 256 256 256 256 255 254 254 253 252 250 249 248 247 245 244 243 242 242 241 241 241 240 239 239 239
325 325 325 325 325 325 325 325 325 326 326 327 327 327 328 328 328 329 329 329 329 329 329 329 329 329 328 328 328 328 327 326 325 324 323 323 322 321 320 319 318 317 316 315 314 312 312 311 310 309 308 307 305 304 303 301 300 299 297 296 293 291 287 283 279 274 270 268 266 265 264 263 261 259 257 255 255 254 255 255 255 255 255 254 253 253 252 251 250 248 247 246 244 243 242 241 241 240 240 240 239 239 238
326 326 326 326 326 327 327 327 328 328 329 329 329 329 330 330 330 330 330 330 330 330 330 330 330 329 329 329 328 328 327 326 325 325 324 323 322 321 320 319 318 317 316 315 314 313 312 311 310 309 308 306 305 304 302 301 300 298 297 296 294 292 290 287 283 278 274 270 266 264 263 262 261 260 258 256 254 254 253 253 254 254 254 253 253 252 252 251 250 249 248 246 245 243 242 241 240 239 239 239 239 238 238
327 327 327 328 328 328 329 329 330 330 331 331 331 331 331 331 331 331 331 331 330 330 330 330 330 330 329 329 329 328 327 326 326 325 324 323 322 321 320 319 318 317 316 315 314 313 312 311 310 309 308 307 305 304 302 301 299 298 297 295 294 292 291 288 286 282 278 273 268 265 262 261 260 259 258 257 255 254 253 252 252 252 253 253 252 252 251 251 250 249 248 246 245 244 243 241 240 239 239 238 238 238 238
328 328 329 329 329 330 330 331 331 332 332 332 332 332 332 332 332 331 331 331 331 330 330 330 330 330 330 329 329 328 327 327 326 325 324 323 322 321 320 319 318 317 316 315 314 313 312 311 310 309 308 307 305 304 303 301 300 298 296 295 293 292 290 288 286 284 281 275 270 266 263 260 259 258 258 257 255 254 253 252 251 251 251 251 251 251 251 250 250 249 248 247 245 244 243 242 241 239 238 238 237 237 237
329 330 330 330 331 331 332 332 333 333 333 333 333 332 332 332 332 331 331 331 330 330 330 330 330 330 330 329 329 328 327 327 326 325 324 323 322 321 320 319 318 317 316 315 314 313 312 311 310 309 308 307 306 304 303 301 300 298 297 295 293 291 289 287 285 284 282 278 273 268 264 260 258 256 256 255 255 254 253 252 251 250 250 250 250 250 250 250 249 249 248 247 246 244 243 242 241 240 238 237 237 236 236
330 330 331 331 332 332 333 333 333 333 333 333 332 332 332 332 331 331 331 331 330 330 330 330 330 330 330 329 329 328 327 326 326 325 324 323 322 321 320 319 318 317 316 315 314 313 312 311 310 309 308 307 306 304 303 302 300 298 297 295 293 291 289 287 285 283 281 279 277 273 267 262 259 257 254 253 253 253 252 251 250 249 249 249 248 248 249 249 249 248 248 247 246 245 243 242 241 240 239 237 236 236 235
331 331 331 332 332 333 333 333 333 333 333 333 332 332 332 331 331 331 331 331 331 331 331 330 330 330 330 329 329 328 327 326 325 324 323 322 321 320 320 319 318 317 316 315 314 313 312 311 310 309 308 307 306 304 303 302 300 298 297 295 293 291 289 287 284 282 280 278 276 274 271 267 264 260 256 252 251 251 251 250 249 248 248 247 247 247 247 247 247 247 247 247 246 245 244 242 241 240 239 237 236 235 235
331 331 332 332 333 333 333 333 333 333 333 332 332 332 332 331 331 331 331 331 331 331 331 330 330 330 329 329 328 328 327 326 325 324 323 322 322 321 320 319 318 317 316 315 314 313 312 311 310 309 308 307 306 304 303 301 300 298 297 295 293 291 288 286 284 282 279 277 275 273 271 269 266 263 259 255 251 249 248 248 248 247 247 246 246 246 246 246 246 246 246 246 245 245 244 242 241 240 239 238 236 235 235
331 332 332 333 333 333 333 333 333 332 332 332 332 332 332 332 332 332 332 332 331 331 331 330 330 330 329 329 328 327 327 326 325 324 324 323 322 321 320 320 319 318 317 316 315 313 312 311 310 309 308 307 305 304 303 301 300 298 296 294 292 290 288 286 283 281 279 276 274 272 270 268 266 264 261 257 253 249 247 246 246 246 245 245 245 244 244 244 244 245 245 245 245 244 243 242 241 240 239 238 237 235 234
331 332 333 333 333 333 333 333 332 332 332 332 332 332 332 332 332 332 332 332 332 331 331 330 330 329 329 328 328 327 327 326 325 325 324 324 323 322 321 320 319 318 317 316 315 313 312 311 310 309 307 306 305 304 302 301 299 298 296 294 292 290 288 285 283 281 278 276 274 271 269 267 266 264 261 258 255 251 247 246 245 244 244 243 243 243 243 243 243 243 243 244 244 243 243 242 241 240 239 238 237 235 234
332 332 333 333 333 333 332 332 332 332 332 332 332 332 333 333 333 333 332 332 332 331 331 330 329 329 328 328 328 327 327 327 326 325 325 324 323 322 321 320 319 318 317 316 315 313 312 311 310 308 307 306 305 303 302 301 299 298 296 294 292 290 287 285 283 280 278 276 273 271 268 266 265 263 261 258 255 252 249 246 244 243 243 242 242 242 241 241 241 241 241 242 242 242 242 242 241 240 239 238 237 235 234
332 332 333 333 332 332 332 332 332 333 333 333 333 333 333 333 333 333 332 332 331 331 330 330 329 329 328 328 328 327 327 327 326 326 325 324 323 322 321 320 319 318 317 316 315 313 312 311 310 308 307 306 304 303 301 300 299 297 296 294 292 290 287 285 283 280 278 276 273 271 268 266 264 262 260 258 255 253 250 246 244 243 242 241 240 240 240 240 240 240 240 240 241 241 241 241 240 240 239 238 237 235 234
332 332 332 332 332 332 332 333 333 333 333 333 333 333 333 333 333 333 332 332 331 331 330 330 329 329 328 328 328 328 328 327 327 326 325 324 323 322 321 320 319 318 317 316 315 314 312 311 310 308 307 306 304 303 301 300 298 297 295 293 291 289 287 285 283 281 278 276 273 271 268 266 263 261 259 257 255 253 250 247 244 242 242 241 240 239 239 238 239 238 238 239 239 240 240 240 240 239 239 238 237 235 234
332 332 332 332 332 333 333 333 333 333 333 333 333 334 334 333 333 332 332 331 331 331 330 330 329 329 329 329 328 328 328 327 326 325 324 324 323 322 321 320 319 318 317 316 315 314 313 312 310 309 307 306 304 303 301 300 298 297 295 293 291 289 287 285 283 281 279 276 274 271 269 266 264 261 259 257 255 253 250 247 244 242 241 240 240 239 238 237 237 237 237 237 237 238 238 239 239 238 238 237 237 235 234
332 332 332 332 333 333 333 333 333 334 334 334 334 334 333 333 332 332 332 331 331 330 330 330 330 330 329 329 329 328 327 327 326 325 324 323 323 322 321 320 320 319 318 317 316 315 314 313 311 310 309 307 305 304 302 300 299 297 295 293 291 289 287 285 283 281 279 277 274 272 270 267 264 262 259 257 255 253 251 248 244 242 240 240 240 239 238 236 236 236 236 236 236 236 237 237 238 238 237 237 236 235 234
333 333 333 333 333 333 333 333 334 334 334 334 333 333 333 332 332 332 331 331 331 331 331 331 330 330 330 329 329 328 327 326 326 325 324 324 323 322 322 321 321 320 319 318 318 317 315 314 313 312 310 309 307 305 303 301 299 297 295 293 291 289 287 285 283 281 279 277 275 273 270 268 265 263 260 257 255 253 251 249 246 243 240 239 240 239 238 237 236 235 235 235 235 235 235 236 236 237 236 236 236 235 234
333 333 333 333 333 333 333 333 333 333 333 333 333 333 332 332 332 332 331 331 331 331 331 331 331 331 330 329 329 328 327 326 326 325 324 324 324 323 323 322 322 321 320 320 319 318 317 316 315 313 312 310 308 306 305 303 301 298 296 294 292 290 288 286 283 281 279 277 275 273 271 269 266 264 261 258 256 254 252 250 248 245 242 240 239 239 239 238 236 235 235 234 234 234 234 235 235 235 235 235 235 235 234
333 333 332 333 333 333 333 333 333 333 333 333 333 332 332 332 332 332 332 332 332 332 331 331 331 330 330 329 328 328 327 326 326 325 325 325 324 324 324 323 323 322 321 321 320 319 318 317 316 315 313 311 310 308 306 304 302 300 297 295 293 291 288 286 284 282 280 277 275 273 271 269 267 265 262 260 257 255 253 251 249 247 244 241 240 239 240 239 237 236 235 234 234 233 233 233 234 234 234 234 234 234 234
332 332 332 333 333 333 333 333 333 333 333 332 332 332 332 332 332 332 332 332 332 332 332 331 331 330 329 329 328 327 327 326 326 326 326 325 325 325 325 324 323 323 322 322 321 320 319 318 317 315 314 312 311 309 307 305 303 301 299 297 294 292 290 287 285 283 280 278 276 274 271 270 268 266 264 261 259 256 254 252 250 248 246 243 241 240 240 240 239 237 235 234 234 233 233 233 233 233 233 234 234 233 233
332 332 332 332 333 333 333 333 333 333 333 332 332 332 332 332 332 332 332 332 332 332 331 331 330 330 329 329 328 328 327 327 327 327 326 326 326 326 325 325 324 324 323 322 321 321 320 319 317 316 315 313 312 310 308 306 304 302 300 298 296 293 291 289 286 284 281 279 276 274 272 270 268 266 264 262 260 257 255 253 251 249 248 246 243 241 241 241 240 239 237 235 234 233 233 233 232 232 233 233 233 233 232
332 332 332 332 333 333 333 333 333 333 333 332 332 333 332 332 332 332 332 332 332 331 331 331 330 329 329 329 328 328 328 328 328 327 327 327 326 326 326 325 325 324 323 323 322 321 320 319 318 317 315 314 312 311 309 308 306 304 302 299 297 295 292 290 288 285 283 280 278 275 272 270 268 266 264 263 261 259 256 254 252 250 249 247 245 243 242 242 242 241 239 237 235 234 233 233 232 232 232 232 232 232 232
332 332 332 332 333 333 333 333 333 333 333 332 333 333 333 332 332 332 332 332 331 331 331 330 330 330 329 329 329 329 329 328 328 328 328 327 327 326 326 326 325 324 324 323 322 322 321 320 319 317 316 315 313 312 310 309 307 305 303 301 298 296 293 291 289 286 284 281 279 276 273 270 268 265 264 262 261 259 257 255 253 251 249 248 247 245 243 243 243 243 242 239 236 235 234 233 232 232 231 231 231 231 231
332 332 332 332 333 333 333 333 333 333 333 333 333 333 333 332 332 332 332 331 331 331 331 330 330 330 329 329 329 329 329 329 329 328 328 327 327 327 326 326 325 325 324 323 323 322 321 320 319 318 317 315 314 312 311 309 308 306 304 302 299 297 294 292 290 287 285 282 279 277 274 271 268 266 263 262 260 259 258 256 254 252 250 249 248 247 245 244 244 244 244 242 239 237 235 234 233 232 231 231 231 231 230
332 332 332 332 333 333 333 333 333 333 333 333 333 333 332 332 332 332 331 331 331 331 331 330 330 330 330 330 329 329 329 329 329 328 328 328 327 327 327 326 325 325 324 324 323 322 321 320 319 318 317 316 314 313 311 310 308 306 304 302 300 298 295 293 291 288 285 283 280 278 275 272 269 267 264 261 260 258 257 256 255 253 252 250 249 248 246 245 245 245 245 245 242 239 237 236 235 233 232 231 231 231 230
332 332 332 333 333 333 333 333 333 333 333 333 332 332 332 332 332 331 331 331 331 331 331 330 330 330 330 330 330 329 329 329 329 328 328 328 328 327 327 326 326 325 324 324 323 322 321 321 320 318 317 316 315 313 312 310 308 307 305 303 301 299 297 294 292 289 287 284 281 279 276 273 271 268 265 262 260 258 256 255 254 253 252 251 250 249 248 246 245 245 246 246 245 242 240 238 237 236 234 233 232 231 230
332 332 332 333 333 333 333 333 333 333 332 332 332 332 332 332 332 331 331 331 331 331 331 331 331 330 330 330 330 329 329 329 329 328 328 328 328 327 327 326 326 325 325 324 323 322 321 320 319 318 317 316 315 313 312 310 309 307 305 304 302 300 298 296 294 291 288 286 283 280 278 275 272 269 266 263 260 258 256 254 253 252 252 251 250 249 248 247 246 246 246 247 247 245 242 240 239 238 236 235 233 232 231
332 332 333 333 333 333 333 333 333 332 332 332 332 332 331 331 331 331 331 331 331 331 331 331 331 331 330 330 330 329 329 329 328 328 328 328 328 327 327 327 326 325 325 324 323 322 321 320 319 318 317 316 314 313 311 310 309 308 306 305 303 302 300 298 296 293 291 288 286 283 280 277 275 272 269 265 262 259 256 254 252 251 251 250 250 249 249 248 247 246 246 247 248 247 245 242 241 239 238 237 235 234 232
332 332 333 333 333 333 333 332 332 332 332 332 332 332 331 331 331 331 331 331 331 331 331 331 331 331 331 330 330 329 329 328 328 328 328 328 328 327 327 327 326 325 325 324 323 322 321 320 319 318 317 316 314 313 311 310 309 308 307 306 305 303 302 300 298 296 294 291 289 286 283 280 277 274 271 268 265 261 258 255 253 251 250 249 249 248 248 248 248 247 247 247 248 248 247 244 242 241 240 239 237 236 234
332 332 333 333 333 332 332 332 332 332 332 332 332 331 331 331 331 331 331 331 331 331 331 331 331 331 331 330 330 329 328 328 328 328 328 328 328 328 327 327 326 326 325 324 323 322 321 320 319 318 317 315 314 313 312 311 310 309 308 307 306 305 304 302 300 298 296 294 292 289 287 284 280 277 274 270 267 264 260 257 254 252 250 248 247 247 247 247 247 247 247 247 248 248 248 246 244 242 241 240 239 237 236
332 332 332 332 332 332 332 332 332 331 331 331 331 331 331 331 331 331 331 331 331 331 331 331 331 331 331 330 330 329 328 328 328 328 328 328 328 328 327 327 326 326 325 324 323 322 321 320 319 318 317 315 314 313 312 312 311 310 310 309 308 307 306 304 303 301 299 297 295 292 290 287 283 280 276 273 269 266 263 259 256 253 251 248 247 246 246 246 247 247 246 247 247 248 248 247 245 243 242 241 240 239 238
332 332 332 332 332 332 332 332 331 331 331 331 331 331 331 331 331 331 331 331 331 331 331 331 331 331 330 330 329 329 328 328 328 328 328 328 328 328 328 327 326 325 325 324 323 322 321 320 319 318 317 316 314 314 313 312 312 312 312 311 311 310 309 307 306 304 303 300 298 295 293 289 286 283 279 275 272 268 264 261 258 255 252 250 247 245 245 245 245 246 246 246 247 247 248 247 245 243 242 241 241 240 239
331 332 332 332 332 331 331 331 331 331 331 331 331 331 331 331 331 331 331 331 331 331 331 331 331 331 330 330 329 329 328 328 328 328 328 329 328 328 328 327 326 325 325 324 323 322 321 320 319 318 317 316 315 314 314 314 314 314 314 314 313 312 312 311 310 308 306 304 302 299 296 292 289 285 281 278 274 270 266 262 259 256 253 251 248 246 244 244 244 244 245 245 246 246 247 247 246 244 242 241 241 240 240
331 331 331 331 331 331 331 331 331 331 330 330 330 330 330 330 330 330 331 331 331 331 331 331 331 330 330 329 329 328 328 328 328 328 328 329 329 328 328 327 326 325 325 324 323 322 321 320 319 318 317 316 315 315 315 315 316 316 316 316 316 315 315 315 314 312 310 308 305 302 299 295 291 287 283 280 276 272 268 264 260 257 254 252 249 246 244 243 243 244 245 245 245 245 246 246 245 244 242 241 240 239 239
330 330 331 331 331 331 331 330 330 330 330 330 330 330 330 330 330 330 330 330 330 330 330 330 330 330 330 329 329 328 328 328 328 328 328 328 328 328 328 327 326 326 325 324 323 322 321 320 320 319 318 317 316 316 317 317 318 319 319 319 318 318 318 318 318 316 315 312 309 306 302 298 293 289 285 282 278 274 270 266 262 258 255 252 250 247 245 244 244 244 245 245 244 244 244 245 244 243 241 239 239 238 238
330 330 330 330 330 330 330 330 330 330 330 330 330 330 330 330 330 330 330 330 330 330 330 330 330 330 330 329 329 328 328 328 328 328 328 328 328 328 327 327 326 326 325 324 323 322 322 321 320 319 318 317 317 317 318 319 320 321 321 321 321 321 321 321 321 320 318 316 313 310 305 301 297 292 288 284 279 275 271 267 263 259 256 253 250 248 246 244 243 244 245 245 245 244 243 243 242 241 239 238 238 238 238
329 329 329 329 329 329 329 329 329 329 329 329 329 329 329 329 329 329 330 330 330 330 330 330 330 330 329 329 329 328 328 328 328 328 328 328 328 328 327 327 326 326 325 324 323 322 322 321 320 319 318 318 318 319 320 321 322 323 323 323 323 323 324 324 324 323 322 320 317 313 309 305 301 296 291 286 281 276 272 267 263 259 256 253 250 248 246 244 242 241 242 244 245 244 243 241 240 238 236 236 237 238 238
329 329 329 329 329 329 329 329 329 329 329 329 329 329 329 329 329 329 329 330 330 330 330 330 330 329 329 329 328 328 327 327 327 328 328 328 328 328 327 327 326 326 325 325 324 323 322 321 320 319 319 319 319 320 321 323 324 325 325 324 324 325 326 326 326 325 324 322 320 317 313 309 305 301 295 289 283 277 272 267 262 258 255 252 249 247 245 243 241 239 239 240 242 243 243 241 239 238 236 236 236 237 237
328 328 328 328 328 328 328 328 328 328 329 329 329 329 328 329 329 329 329 329 329 329 329 329 330 329 329 329 328 328 327 327 327 327 327 328 328 328 327 327 327 326 326 325 324 323 322 321 320 320 319 319 319 320 322 324 326 326 326 325 326 326 327 327 327 326 325 323 321 319 315 312 308 304 299 293 286 279 273 267 261 257 253 251 248 246 244 242 241 239 237 238 240 242 243 242 241 240 238 237 236 236 236
327 327 327 328 327 327 327 328 328 328 328 328 328 328 328 328 328 328 328 328 329 329 329 329 329 329 329 329 328 328 327 327 327 327 327 327 328 328 327 327 327 326 326 325 324 323 322 321 320 320 319 319 319 321 323 325 327 327 327 326 327 328 328 328 328 327 326 324 322 320 317 314 311 308 303 298 291 284 275 268 262 257 253 250 248 246 244 242 240 238 236 237 239 240 239 240 240 240 238 236 234 234 235
327 327 327 327 327 327 327 327 327 328 328 328 328 328 328 328 328 328 328 328 328 329 329 329 329 329 329 329 328 327 327 327 326 327 327 327 327 327 327 327 327 327 326 325 324 323 322 321 320 320 319 318 319 321 324 327 328 329 328 327 327 328 329 329 328 327 326 325 323 321 319 317 314 312 309 304 298 290 281 272 265 258 254 250 248 245 243 241 238 236 234 235 238 238 238 237 237 237 236 234 232 232 234
326 326 326 326 326 326 326 326 327 327 328 328 328 328 328 327 327 327 327 327 328 328 329 329 329 329 329 329 328 327 327 327 327 327 327 327 327 327 327 327 327 327 326 326 324 323 322 321 320 319 318 318 320 322 325 328 329 329 328 328 328 329 329 329 329 328 327 325 324 322 321 319 318 316 314 311 305 298 288 278 269 261 255 251 247 244 241 237 234 230 228 231 235 236 235 234 233 233 233 233 232 232 233
325 325 325 325 325 326 326 326 326 327 327 328 328 328 327 327 327 327 327 327 327 328 328 329 329 329 329 329 328 327 327 327 327 327 327 327 327 328 328 328 328 328 327 326 325 323 322 321 320 319 318 319 321 324 327 329 330 330 329 327 328 328 329 330 329 328 327 326 325 324 322 321 319 317 315 313 309 304 296 285 275 265 257 251 246 242 238 233 229 224 221 223 227 230 230 229 229 229 230 230 230 231 231
325 325 325 325 325 325 325 325 326 326 327 327 327 327 327 326 326 326 326 326 327 327 328 328 328 329 329 329 328 328 327 327 327 327 327 327 328 328 328 328 328 328 327 326 325 323 322 321 320 319 319 320 323 326 329 330 331 330 328 327 327 328 329 330 330 329 328 327 326 324 322 319 317 314 312 310 309 306 302 295 284 273 263 254 247 241 236 231 225 220 215 214 217 222 223 224 226 226 227 227 228 229 230
324 324 324 324 324 325 325 325 325 326 326 327 327 326 326 326 326 326 326 326 326 327 327 328 328 328 328 329 328 328 327 327 327 327 327 327 328 328 328 328 328 328 327 326 325 324 322 321 320 320 321 322 324 327 330 331 331 330 329 328 327 328 330 330 330 329 328 326 325 323 320 317 314 312 309 307 306 305 304 300 293 283 271 260 250 242 235 229 224 218 213 211 211 213 215 218 221 223 224 226 227 227 228
323 323 324 324 324 324 324 325 325 325 326 326 326 326 326 325 325 325 325 326 326 326 327 328 328 328 328 328 328 328 327 327 327 327 327 327 327 328 328 328 328 328 328 327 326 324 323 322 322 321 322 324 326 329 330 331 331 331 330 329 328 329 330 330 330 328 327 325 323 321 319 317 315 313 309 306 304 304 303 301 297 290 279 267 255 245 237 230 224 218 214 211 210 209 209 212 216 220 221 223 224 225 226
323 323 323 323 324 324 324 324 324 325 325 325 325 325 325 325 325 325 325 326 326 326 327 327 328 328 328 328 328 328 327 327 327 327 327 328 328 328 328 329 329 329 328 327 326 325 324 323 323 323 324 326 328 329 330 330 331 332 331 330 329 329 330 330 329 327 326 324 322 321 320 318 316 313 309 306 304 304 304 302 298 293 285 273 261 250 241 232 226 220 216 213 211 209 207 207 211 216 218 220 221 222 224
322 322 322 323 323 323 323 324 324 324 325 325 325 325 325 325 325 325 325 326 326 326 327 327 327 328 328 328 328 328 328 327 327 328 328 329 329 329 329 329 329 329 329 328 327 326 325 324 324 324 325 327 328 328 328 330 331 332 333 332 331 331 330 330 329 327 325 323 322 321 321 319 317 313 309 306 306 306 306 303 297 292 285 276 264 252 244 236 228 222 217 214 212 209 207 205 208 212 215 217 219 220 221
321 322 322 322 322 323 323 323 323 323 324 324 324 325 325 325 325 325 325 325 326 326 326 327 327 327 328 328 328 328 328 328 328 328 329 329 329 330 329 329 329 329 330 329 328 327 326 325 324 324 325 326 326 327 327 329 331 332 333 333 333 333 332 330 329 327 325 323 321 321 320 319 317 314 310 307 307 308 309 305 297 289 281 274 264 254 246 239 232 224 219 214 211 209 207 206 206 207 208 211 214 217 219
321 321 321 322 322 322 322 322 322 323 323 324 324 324 325 325 325 325 325 325 325 325 326 326 327 327 327 328 328 328 328 328 328 329 330 330 330 330 330 330 330 330 330 330 328 327 327 325 324 324 325 325 325 325 327 328 330 332 333 334 335 335 333 331 330 328 325 323 321 319 318 318 317 314 310 307 307 309 311 307 298 286 277 269 261 253 247 241 234 227 221 216 212 209 207 206 205 205 205 206 208 210 214
320 320 321 321 321 321 321 321 322 322 323 323 324 324 324 325 325 325 325 325 325 325 326 326 326 327 327 327 328 328 329 329 329 329 330 330 331 331 330 330 329 328 328 327 327 326 327 326 325 324 324 324 324 325 326 327 329 330 332 334 336 336 336 333 330 328 325 323 321 319 317 316 315 312 309 306 306 309 311 308 298 285 275 267 261 255 249 243 237 231 225 219 214 211 208 207 207 206 205 206 206 207 209
319 320 320 320 320 320 320 321 321 322 322 323 323 324 324 324 324 325 325 325 325 325 326 326 326 327 327 327 327 328 329 329 329 330 330 331 331 331 330 329 328 327 326 326 325 326 326 326 324 323 322 323 323 324 324 326 327 329 331 333 336 338 338 336 332 328 324 322 321 320 318 316 313 311 308 305 305 307 310 309 300 286 274 267 263 259 255 249 241 235 229 223 218 214 210 209 208 208 207 206 206 207 207
319 319 319 320 320 320 320 320 321 321 322 322 323 324 324 324 324 324 324 324 325 325 326 326 326 326 327 327 327 328 329 329 330 330 331 331 330 330 329 329 329 329 328 327 326 325 325 324 323 321 321 322 322 322 323 324 326 328 330 332 335 338 341 340 336 330 324 321 320 320 319 317 314 310 307 305 303 305 309 310 304 290 274 267 264 262 261 256 249 241 234 227 222 217 213 211 210 210 210 209 207 207 208
318 318 319 319 319 319 319 320 320 321 321 322 323 323 324 324 324 324 324 324 325 325 326 326 326 326 326 326 327 327 328 329 330 330 331 331 331 330 329 328 327 327 326 325 325 324 323 323 321 320 320 320 321 321 321 323 325 326 328 331 334 338 341 343 340 335 328 323 321 320 320 319 316 311 308 305 303 304 308 312 310 299 280 268 263 262 262 262 258 251 242 234 227 221 217 214 212 212 213 212 211 210 210
318 318 318 318 318 318 319 319 320 320 321 322 323 323 324 324 324 324 324 325 325 325 326 326 326 326 326 326 326 327 328 329 330 330 331 331 331 330 328 327 325 324 323 322 322 322 322 322 321 320 319 319 318 319 320 321 322 324 326 329 333 336 340 344 344 340 333 327 323 321 322 320 317 313 309 305 302 303 307 312 313 309 294 277 267 263 263 264 263 259 251 242 234 227 222 218 215 215 215 215 214 213 213
317 317 317 317 317 318 318 319 319 320 321 322 323 323 323 324 324 324 325 325 325 325 326 326 326 326 326 326 326 327 328 329 330 330 330 331 331 330 329 327 326 324 323 321 321 320 320 321 321 320 319 318 317 316 317 318 320 321 323 327 331 335 339 343 345 344 339 332 326 324 323 322 318 313 307 303 301 301 304 309 313 312 306 293 279 270 267 267 267 264 259 250 242 234 229 224 221 218 217 217 217 217 217
316 316 316 317 317 317 318 319 319 320 321 321 322 323 323 323 324 324 325 325 325 325 326 326 326 326 325 325 326 327 328 329 329 330 330 331 330 330 329 329 327 326 323 321 319 318 318 319 319 319 319 319 318 316 315 316 317 318 320 324 329 333 337 342 346 347 344 337 330 326 325 322 317 308 300 298 298 299 300 305 309 311 309 302 291 279 273 270 269 266 261 255 248 241 235 230 226 223 221 220 220 220 221
315 315 316 316 316 317 318 318 319 319 320 321 322 322 323 323 323 324 325 325 325 325 325 325 325 325 325 325 325 326 327 328 329 329 330 330 330 330 329 329 328 327 324 322 320 318 317 317 318 319 319 319 319 317 315 314 314 315 317 320 325 331 336 341 345 347 346 341 334 327 323 319 311 300 292 294 296 297 297 300 305 309 308 302 292 281 272 268 266 264 261 256 251 247 241 236 231 227 225 224 224 224 225
314 315 315 315 316 316 317 318 319 319 320 321 322 322 323 323 323 324 325 325 325 325 326 325 325 325 325 325 325 326 327 328 329 329 330 330 330 330 329 329 328 327 326 323 321 319 317 317 317 318 318 318 317 316 315 313 312 313 314 317 322 328 334 340 344 347 347 344 337 328 321 316 310 298 291 293 294 292 290 290 295 306 311 296 279 267 262 261 261 260 258 255 253 252 250 245 239 234 231 228 228 228 228